Flag for France Weather past 2 weeks in Lille, France

Now
34 °F

Clear.


Feels Like: 30 °F
Forecast: 36 / 49 °F
Wind: 5 mph from Northwest

Location: Lille Airport

Current Time: Mar 5, 2015 at 1:19:41 AM

Latest Report: Mar 5, 2015 at 1:00 AM


Visibility: 10 mi

Pressure: 30.63 "Hg

Humidity: 93%

Dew point: 32 °F

Location of LilleLocation

Historic Weather in Lille — Graph

°F

Lille temperature yesterday

Maximum temperature yesterday: 48 °F (at 1:00 PM)
Minimum temperature yesterday: 34 °F (at 6:30 AM)
Average temperature yesterday: 40 °F

Past Weeks' High & Low Weather Summary

 TemperatureHumidityPressure
High52 °F (Mar 1, 2:00 PM)100% (Feb 18, 12:00 AM)30.77 "Hg (Feb 18, 12:00 AM)
Low27 °F (Feb 18, 5:00 AM)53% (Feb 27, 4:00 PM)29.36 "Hg (Feb 23, 4:00 AM)
Average41 °F86%29.93 "Hg
* Reported Midnight between Feb 17 and Feb 18 — Midnight between Mar 4 and Mar 5, Lille, Weather by CustomWeather, © 2015

Note: Actual official high and low records may vary slightly from our data, if they occured in-between our weather recording intervals... More about our weather records

Advertising

Lille weather history for previous 24 hours

 ConditionsComfort  
Time TempWeatherWind HumidityBarometerVisibility
12:00 AM
Thu, Mar 5
36 °FClear.6 mph93%30.60 "Hg10 mi
11:30 PM
Wed, Mar 4
36 °FClear.6 mph93%30.60 "Hg10 mi
10:00 PM36 °FClear.7 mph93%30.57 "Hg10 mi
9:30 PM37 °FClear.6 mph87%30.57 "Hg10 mi
9:00 PM39 °FClear.7 mph81%30.54 "Hg10 mi
8:30 PM41 °FClear.8 mph81%30.54 "Hg10 mi
8:00 PM41 °FPassing clouds.10 mph81%30.51 "HgN/A
7:30 PM41 °FPassing clouds.7 mph81%30.51 "HgN/A
7:00 PM43 °FPassing clouds.16 mph76%30.48 "HgN/A
6:30 PM45 °FPassing clouds.13 mph66%30.48 "HgN/A
6:00 PM45 °FSunny.14 mph66%30.48 "Hg10 mi
5:30 PM46 °FScattered clouds.17 mph62%30.45 "HgN/A
5:00 PM46 °FScattered clouds.16 mph57%30.42 "HgN/A
4:30 PM46 °FScattered clouds.20 mph62%30.42 "HgN/A
4:00 PM46 °FPartly sunny.18 mph62%30.42 "HgN/A
3:30 PM46 °FPartly sunny.18 mph62%30.39 "HgN/A
3:00 PM46 °FPartly sunny.16 mph62%30.39 "HgN/A
2:30 PM45 °FPartly sunny.17 mph66%30.39 "HgN/A
2:00 PM45 °FScattered clouds.16 mph66%30.36 "HgN/A
1:30 PM48 °FScattered clouds.15 mph62%30.36 "HgN/A
1:00 PM48 °FScattered clouds.16 mph62%30.36 "HgN/A
12:30 PM46 °FScattered clouds.17 mph62%30.36 "HgN/A
12:00 PM46 °FScattered clouds.15 mph62%30.33 "HgN/A
11:30 AM45 °FPassing clouds.13 mph71%30.33 "HgN/A
11:00 AM45 °FPassing clouds.16 mph71%30.33 "HgN/A
10:30 AM43 °FSunny.16 mph76%30.33 "Hg10 mi
10:00 AM41 °FSunny.13 mph81%30.30 "Hg10 mi
9:30 AM39 °FSunny.8 mph87%30.30 "Hg10 mi
9:00 AM37 °FSunny.9 mph87%30.30 "Hg10 mi
8:30 AM36 °FSunny.7 mph93%30.27 "Hg10 mi
8:00 AM34 °FSunny.7 mph87%30.27 "Hg10 mi
7:30 AM36 °FSunny.7 mph87%30.24 "Hg10 mi
7:00 AM34 °FClear.No wind93%30.24 "Hg10 mi
6:30 AM34 °FClear.2 mph93%30.24 "Hg10 mi
6:00 AM36 °FClear.5 mph81%30.21 "Hg10 mi
5:30 AM36 °FClear.8 mph87%30.21 "Hg10 mi
5:00 AM36 °FClear.8 mph81%30.21 "Hg10 mi
4:00 AM36 °FClear.7 mph81%30.21 "HgN/A
3:30 AM36 °FClear.7 mph81%30.21 "HgN/A
3:00 AM36 °FClear.7 mph87%30.21 "HgN/A
2:30 AM36 °FClear.6 mph87%30.21 "HgN/A
2:00 AM36 °FClear.7 mph87%30.18 "HgN/A
1:30 AM36 °FClear.6 mph87%30.18 "HgN/A
1:00 AM36 °FPassing clouds.7 mph87%30.18 "HgN/A
Weather by CustomWeather, © 2015

See weather overviewHow to use our weather pages